THORAD DELTA 1 DEB, 8406

Orbit data source: Space-Track

THORAD DELTA 1 DEB, 8406 is space debris in SSO originally from a launch on Fri, 15 Nov 1974 UTC launched from the Air Force Western Test Range (AFWTR). Debris objects in space refer to the collection of defunct objects orbiting the Earth. Examples of debris include non-operational satellites, rocket bodies, and fragments generated from explosions, collisions, or faulty payload assembly.

Loading next visibility...
Identifier
8406, 1974-089CJ
Orbit
SSO
Country
Flag of USUS
Related business
Manufacturer
Unknown
Mission
Spacecraft
Bus & Motor
Unknown
Mass
Unknown
Launch date (UTC)
1974-11-15 (52 years ago)
Launch vehicle
Unknown
Launch site
Air Force Western Test Range (AFWTR)
Object type
Payload
Rocket body
Debris
Shape & HBR
Unknown shape, 0.2 m
Radar Cross Section
Medium (>0.1 m² and <1 m²)

Expand to show TLE details & history
Last TLE update: 2 days ago

TLE from 2 days ago
0 THORAD DELTA 1 DEB
1 08406U 74089CJ  26256.50900499  .00000073  00000-0  68359-3 0  9997
2 08406 101.2966 111.8353 0021140   8.8334  62.2777 12.57925165373143
Epoch: 2026-09-13T12:12Z
TLE epoch observation values (Epoch: 2026-09-13T12:12:58.031Z)
Latitude
68.35774°
Longitude
-93.97298°
Altitude
1,435.549 km
Speed
7.153 km/s
True Right ascension
05h 27m 05s
True Declination
68° 14' 59"
Sunlit
Object was in daylight at epoch
Visualization orbit readout
Latitude
Unknown
Longitude
Unknown
Altitude
Unknown
Speed
Unknown
Apparent Right ascension
Unknown
Apparent Declination
Unknown
Sunlit
N/A
Visualization observer readout
Local Sidereal Time
18:29:09
Azimuth
Unknown
Elevation
Unknown
Doppler factor
Unknown
Orbital elements
Apogee altitude
1,445.535 km
Perigee altitude
1,412.526 km
Semi-major axis
7,807.167 km
Eccentricity
0.00211
Inclination
101.2966°
RAAN
111.8353°
Arg. of periapsis
8.8334°
True anomaly
62.4924°
Mean anomaly
62.2777°
Eccentric anomaly
62.38503°
Mean motion
3.14632 °/min
Orbital period
114.42 mins
BSTAR
0.00068359
Loading maneuver chart data...
Computing Atmospheric mass density...
Loading historical data...
Loading historical data...
Loading historical data...
Loading historical data...
Loading historical data...
Loading historical data...
Loading historical data...

Documentation

Showing up to 5 results
|